Voltar ao catálogo

SL-3 R/B

AtivoPO
NORAD 14453·ROCKET BODY·🇷🇺 Russia

Lançado Oct 28, 1983 de Plesetsk Cosmodrome

Loading…

Próximas Passagens (próximas 24 horas)

TLE

AtualizadoSource: Space-Track

Época: Sep 14, 2026, 21:04 UTC

1 14453U 83109B   26257.87779368  .00000070  00000-0  23021-4 0  9994
2 14453  81.1658 307.9160 0103956  12.0301 348.3323 14.25476919228326

Acompanhe SL-3 R/B em tempo real com AllMySat

Download on the App Store